This is the latest recevied weather packets stored in our database for station/object WX6HNX-12. If no packets are shown the sender has not sent any weather packets the latest 1 day(s).
| Time | Temp. | Humidity | Pressure | Rain* | Wind** | Luminosity | Snow |
|---|---|---|---|---|---|---|---|
| 1778037736 | 17.22° C | 60% | 1015.3 hPa | 0 mm | - | - | - |
| 1778037135 | 17.22° C | 57% | 1015 hPa | 0 mm | - | - | - |
| 1778036835 | 17.22° C | 57% | 1015 hPa | 0 mm | - | - | - |
| 1778036534 | 17.22° C | 57% | 1014.9 hPa | 0 mm | - | - | - |
| 1778036235 | 17.22° C | 56% | 1014.8 hPa | 0 mm | - | - | - |
| 1778035934 | 17.22° C | 57% | 1014.7 hPa | 0 mm | - | - | - |
| 1778035635 | 17.22° C | 56% | 1014.8 hPa | 0 mm | - | - | - |
| 1778035337 | 17.22° C | 56% | 1014.7 hPa | 0 mm | - | - | - |
| 1778035037 | 17.78° C | 56% | 1014.7 hPa | 0 mm | - | - | - |
| 1778034734 | 17.78° C | 56% | 1014.6 hPa | 0 mm | - | - | - |
| 1778034134 | 17.78° C | 53% | 1014.5 hPa | 0 mm | - | - | - |
| 1778033835 | 17.78° C | 53% | 1014.5 hPa | 0 mm | - | - | - |
| 1778033534 | 17.78° C | 54% | 1014.5 hPa | 0 mm | - | - | - |
| 1778032937 | 17.78° C | 53% | 1014.3 hPa | 0 mm | - | - | - |
| 1778032334 | 17.78° C | 53% | 1014.3 hPa | 0 mm | - | - | - |
| 1778032035 | 17.78° C | 56% | 1014.4 hPa | 0 mm | - | - | - |
| 1778031734 | 17.78° C | 57% | 1014.3 hPa | 0 mm | - | - | - |
| 1778031434 | 17.78° C | 56% | 1014.3 hPa | 0 mm | - | - | - |
| 1778030834 | 18.33° C | 56% | 1014.2 hPa | 0 mm | - | - | - |
| 1778030234 | 18.89° C | 54% | 1014.3 hPa | 0 mm | - | - | - |
| 1778029936 | 18.89° C | 54% | 1014.2 hPa | 0 mm | - | - | - |
| 1778029634 | 18.89° C | 54% | 1014.2 hPa | 0 mm | - | - | - |
| 1778029335 | 18.89° C | 55% | 1014.1 hPa | 0 mm | - | - | - |
| 1778028734 | 18.33° C | 56% | 1014.1 hPa | 0 mm | - | - | - |
| 1778028434 | 18.33° C | 58% | 1014.1 hPa | 0 mm | - | - | - |
* Rain latest hour (hover to see other rain measurements)
** Current wind speed in m/s (hover to see current wind gust speed)